PLEIADES 1B

Last updated on Sun Sep 20 2026 00:02:43 GMT+0000 (Coordinated Universal Time)

1 39019U 12068A 26262.47552948 .00000188 00000+0 50308-4 0 9997 2 39019 98.1872 336.1905 0001377 101.6022 258.5332 14.58567361734598
UTC large
Height (km)
Speed (km/s)
/
Latitude / Longitude
Inclination (degrees)
Orbital Period (minutes)
Azimuth
Elevation
Range (km)
Doppler Factor

Next 0 passes for location: London (51.5072 / 0.1276)

No passes found over London.
PLEIADES 1B